Skip Page Navigation
NASA JPL Caltech
NASA Logo - Jet Propulsion Laboratory + View the NASA Portal
+ Near-Earth Object (NEO) Program
Search JPL
JPL Home Earth Solar System Stars & Galaxies Technology
JPL Solar System Dynamics
BODIES ORBITS EPHEMERIDES TOOLS PHYSICAL DATA DISCOVERY FAQ SITE MAP
JPL Small-Body Database Browser
Search: [ help ]  
44711 Carp (1999 TD4)
Classification: Main-belt Asteroid          SPK-ID: 2044711
Ephemeris | Orbit Diagram | Orbital Elements | Physical Parameters | Discovery Circumstances ]

[ show orbit diagram ]
Orbital Elements at Epoch 2456400.5 (2013-Apr-18.0) TDB
Reference: MPO250631 (heliocentric ecliptic J2000)
 Element Value Uncertainty (1-sigma)   Units 
e 0.2367951 n/a  
a 2.2525180 n/a AU
q 1.7191328 n/a AU
i 5.32665 n/a deg
node 307.53471 n/a deg
peri 281.19456 n/a deg
M 117.99793 n/a deg
tp 2455995.7631582
(2012-Mar-09.26315820)
n/a JED
period 1234.8120265
3.38
n/a
n/a
d
yr
n 0.29154235 n/a deg/d
Q 2.7859032 n/a AU
  Orbit Determination Parameters
   # obs. used (total)      659  
   first obs. used      1997-??-??  
   last obs. used      2012-11-06  
   # oppositions      11  
   planetary ephem.      DE403  
   condition code      0  
   fit RMS      0.52  
   data source      MPC:mpn  
   producer      MPCLINUX  

Additional Information
 T_jup = 3.583 

Ephemeris | Orbit Diagram | Orbital Elements | Physical Parameters | Discovery Circumstances ]

Physical Parameter Table
Parameter Symbol Value Units Sigma Reference Notes
absolute magnitude H 14.6 mag n/a MPO250631  

44711 Carp           Discovered 1999 Oct. 3 by A. Nakamura at Kuma Kogen.
The Hiroshima Toyo Carp, founded in 1949, is a professional baseball team. Operated with capital from citizens of Hiroshima for the first 20 years, they are known as a unique "municipal team". The Carp has won the Central League six times and the Japan Series championships three times.
NOTE: some special characters may not display properly (any characters within {} are an attempt to place the proper accent above a character)
Reference: 20030806/MPCPages.arcLast Updated: 2003-10-02

Alternate Designations
 1999 TD4 = 1988 EB3 
Ephemeris | Orbit Diagram | Orbital Elements | Physical Parameters | Discovery Circumstances ]
ABOUT SSD CREDITS/AWARDS PRIVACY/COPYRIGHT GLOSSARY LINKS
FirstGov 2013-May-25 20:24 UT
(server date/time)  
NASA Home Page
Site Manager:   Donald K. Yeomans
Webmaster  Alan B. Chamberlin